Regional Weather Roundup
Issued by NWS

Home | Current Version | Previous Version | Graphics & Text | Print | Product List | Glossary On
Versions: 1 2 3 4 5 6 7 8 9 10 11 12 13 14 15 16 17 18 19 20 21 22 23 24 25 26 27 28 29 30 31 32 33 34 35 36 37 38 39 40 41 42 43 44 45 46 47 48 49 50
000
ASUS43 KDTX 281810
RWRMI
MICHIGAN HOURLY REGIONAL WEATHER ROUNDUP
NATIONAL WEATHER SERVICE DETROIT/PONTIAC MI
200 PM EDT TUE JUL 28 2015

NOTE: "FAIR" INDICATES FEW OR NO CLOUDS BELOW 12,000 FEET WITH NO
SIGNIFICANT WEATHER AND/OR OBSTRUCTION TO VISIBILITY.

MIZ047>049-052>055-059>063-066>070-074>076-081>083-281900-
SOUTHEAST LOWER MICHIGAN

CITY           SKY/WX    TMP DP  RH WIND       PRES   REMARKS
ADRIAN         SUNNY     87  64  46 VRB3      30.04F
6HR MIN TEMP:  67; 6HR MAX TEMP:  87;

ALMA           SUNNY     87  62  43 S5        30.04F
ANN ARBOR      SUNNY     87  62  43 S5        30.03F
BAD AXE        SUNNY     87  59  38 CALM      30.04S
6HR MIN TEMP:  69; 6HR MAX TEMP:  88;

DETROIT CITY   SUNNY     87  62  43 E7        30.03S
6HR MIN TEMP:  74; 6HR MAX TEMP:  88;

DETROIT        MOSUNNY   88  63  43 S7        30.03F
6HR MIN TEMP:  74; 6HR MAX TEMP:  89;

FLINT          SUNNY     89  60  37 CALM      30.03F
6HR MIN TEMP:  70; 6HR MAX TEMP:  90;

GROSSE ILE     SUNNY     84  64  51 S6        30.02F
HILLSDALE      SUNNY     86  61  43 E5        30.05F
6HR MIN TEMP:  70; 6HR MAX TEMP:  86;

HOWELL         SUNNY     88  57  35 SE7       30.04F
6HR MIN TEMP:  68; 6HR MAX TEMP:  88;


CITY           SKY/WX    TMP DP  RH WIND       PRES   REMARKS
JACKSON        SUNNY     88  59  37 MISG      30.04F
6HR MIN TEMP:  67; 6HR MAX TEMP:  88;

LAMBERTVILLE   SUNNY     87  63  44 E6        30.03S
6HR MIN TEMP:  69; 6HR MAX TEMP:  87;

LANSING        SUNNY     87  63  44 VRB3      30.04F
6HR MIN TEMP:  70; 6HR MAX TEMP:  88;

LAPEER         NOT AVBL
MASON          SUNNY     84  60  43 S7        30.04F
MONROE         SUNNY     86  65  48 E6        30.02F
MT. CLEMENS    MOSUNNY   87  63  43 SE7       30.03S
6HR MIN TEMP:  71; 6HR MAX TEMP:  87;

PONTIAC        PTSUNNY   89  59  36 CALM      30.04S
6HR MIN TEMP:  71; 6HR MAX TEMP:  89;

PORT HOPE        N/A     79  72  79 NE3       30.03F
6HR MIN TEMP:  72; 6HR MAX TEMP:  82;

PORT HURON     SUNNY     88  61  40 CALM      30.03F
TRI CITIES     SUNNY     89  64  43 SW8       30.04S HX  90
6HR MIN TEMP:  71; 6HR MAX TEMP:  93;

YPSILANTI      SUNNY     93  61  34 S10       30.03F HX  93
6HR MIN TEMP:  72; 6HR MAX TEMP:  93;

$$
MIZ043>046-050>051-056>058-064>065-071>073-077>080-281900-
SOUTHWEST LOWER MICHIGAN

CITY           SKY/WX    TMP DP  RH WIND       PRES   REMARKS
BATTLE CREEK   SUNNY     88  65  46 S5        30.04F HX  90
6HR MIN TEMP:  70; 6HR MAX TEMP:  88;

BENTON HARBOR  SUNNY     87  66  49 S8        30.00F
6HR MIN TEMP:  68; 6HR MAX TEMP:  89;

BIG RAPIDS     PTSUNNY   86  55  34 S5        30.04S
6HR MIN TEMP:  64; 6HR MAX TEMP:  86;

COLDWATER      SUNNY     84  64  51 S3        30.03F
6HR MIN TEMP:  64; 6HR MAX TEMP:  84;

HOLLAND        MOSUNNY   89  61  38 VRB6      30.01F
6HR MIN TEMP:  68; 6HR MAX TEMP:  89;

GRAND RAPIDS   PTSUNNY   87  58  37 S8        30.02F
6HR MIN TEMP:  68; 6HR MAX TEMP:  88;

KALAMAZOO      SUNNY     87  62  43 S6        30.02F
6HR MIN TEMP:  69; 6HR MAX TEMP:  88;

MARSHALL       SUNNY     87  62  43 S5        30.04F
MUSKEGON       PTSUNNY   88  58  36 SW8       30.01F
6HR MIN TEMP:  70; 6HR MAX TEMP:  89;

$$
MIZ016>042-281900-
NORTHERN LOWER MICHIGAN

CITY           SKY/WX    TMP DP  RH WIND       PRES   REMARKS
ALPENA         MOSUNNY   92  63  38 E10       30.02S HX  93
6HR MIN TEMP:  70; 6HR MAX TEMP:  92;

BEAVER ISLAND  CLOUDY    86  57  36 SW7       30.01S
6HR MIN TEMP:  68; 6HR MAX TEMP:  87;

BELLAIRE       PTSUNNY   91  56  30 W5        29.98F
6HR MIN TEMP:  64; 6HR MAX TEMP:  92;

CADILLAC       PTSUNNY   89  60  36 S10G16    30.04F
CHARLEVOIX     CLOUDY    82  66  57 NW8       30.03F
6HR MIN TEMP:  67; 6HR MAX TEMP:  85;

FRANKFORT      MOCLDY    83  64  52 SW6       30.02S
GAYLORD        MOSUNNY   89  57  33 S9        30.03F
6HR MIN TEMP:  68; 6HR MAX TEMP:  90;

GRAYLING       MOSUNNY   91  53  27 S7        30.04S
HARBOR SPRINGS PTSUNNY   91  57  31 CALM      29.99F
HOUGHTON LAKE  MOSUNNY   89  63  41 W6        30.04F HX  90
6HR MIN TEMP:  64; 6HR MAX TEMP:  89;

MANISTEE       PTSUNNY   84  61  45 W10       30.01F
OSCODA         SUNNY     89  64  43 SE10G21   30.01F HX  91
PELLSTON       PTSUNNY   92  55  28 W8        30.00F HX  90
6HR MIN TEMP:  65; 6HR MAX TEMP:  92;

TRAVERSE CITY  CLOUDY    92  62  36 W10G17    29.97F HX  92
6HR MIN TEMP:  69; 6HR MAX TEMP:  93;

$$
MIZ007>008-015-281900-
EASTERN UPPER MICHIGAN

CITY           SKY/WX    TMP DP  RH WIND       PRES   REMARKS
KINROSS        PTSUNNY   90  55  31 S9        30.00F
6HR MIN TEMP:  72; 6HR MAX TEMP:  91;

MACKINAC ISLAN PTSUNNY   87  61  41 CALM      30.00F
$$
MIZ004>006-011>014-085-281900-
CENTRAL UPPER MICHIGAN

CITY           SKY/WX    TMP DP  RH WIND       PRES   REMARKS
MANISTIQUE     CLOUDY    79  63  57 S8        29.99F
ESCANABA       CLOUDY    79  64  61 SE7       29.97F
6HR MIN TEMP:  61; 6HR MAX TEMP:  82;

MENOMINEE      CLOUDY    82  64  54 S9G17     29.96F
6HR MIN TEMP:  64; 6HR MAX TEMP:  82;

SAWYER-GWINN   SUNNY     82  61  47 S15G21    29.98F
$$
MIZ001>003-009>011-084-281900-
WESTERN UPPER MICHIGAN

CITY           SKY/WX    TMP DP  RH WIND       PRES   REMARKS
IRON MOUNTAIN  CLOUDY    81  64  56 SE13G20   29.94F
6HR MIN TEMP:  64; 6HR MAX TEMP:  82;

HOUGHTON       CLOUDY    78  64  61 SE10      29.91F
6HR MIN TEMP:  67; 6HR MAX TEMP:  80;

COPPER HARBOR    N/A     83  61  47 VRB6G16   29.90F
6HR MIN TEMP:  71; 6HR MAX TEMP:  83;

IRONWOOD       CLOUDY    77  66  69 S15G22    29.80R
6HR MIN TEMP:  70; 6HR MAX TEMP:  77;

$$

ABBREVIATIONS USED IN REMARKS
   TC - TEMPERATURE IN CELSIUS
  WCI - WIND CHILL INDEX
   HX - HEAT INDEX
  VSB - VISIBILITY




USA.gov is the U.S. government's official web portal to all federal, state and local government web resources and services.